#timestamp,LO_Frequency,Hit,StdDev 
1702692015.5,286047002.0,N
1702692035.3,286047001.6,N
1702692055.1,286046999.7,N
1702692075.9,286047002.4,N
1702692095.7,286047002.2,N
1702692115.6,286047000.1,N
1702692135.4,286047001.0,N
1702692155.2,286047000.6,N
1702692175.1,286047002.0,N
1702692176.0,286047002.0,N
1702692195.8,286047002.5,N
1702692215.6,286047003.7,Y
1702692235.5,286047002.8,P
1702692255.3,286047001.9,N
1702692275.2,286047003.2,P
1702692295.9,286047001.8,N
1702692315.7,286047001.6,N
1702692335.6,286047003.7,Y
1702692355.4,286047002.4,P
1702692375.2,286047001.0,P
1702692395.1,286046999.1,N
1702692396.0,286046999.1,N
1702692415.8,286046999.1,N
1702692435.7,286046998.6,N
1702692455.5,286046997.1,N
1702692475.3,286046997.0,N
1702692495.2,286046997.3,N
1702692515.0,286046997.8,N
1702692515.9,286046997.8,N
1702692535.7,286046995.0,N
1702692555.6,286046994.9,N
1702692575.4,286046998.4,N
1702692595.3,286046998.9,N
1702692615.1,286046997.1,N
1702692616.0,286046997.1,N
1702692635.8,286046997.4,N
1702692655.7,286046996.6,N
1702692675.5,286046996.9,N
1702692695.3,286046996.7,N
1702692715.2,286046995.3,N
1702692735.0,286046995.6,N
1702692735.9,286046995.6,N
1702692755.8,286046997.7,N
1702692775.6,286046997.2,N
1702692795.4,286046998.7,N
1702692815.3,286046996.9,N
1702692835.1,286046996.5,N
1702692855.8,286046996.9,N
1702692875.7,286046998.4,N
1702692895.5,286046999.5,N
1702692915.4,286046998.5,N
1702692935.2,286046999.4,N
1702692955.0,286046997.8,N
1702692955.9,286046997.8,N
1702692975.8,286046997.1,N
1702692995.6,286047001.2,N
1702693015.4,286046999.5,N
1702693035.3,286046995.0,Y
1702693055.1,286046998.1,P
1702693075.9,286047000.8,N
1702693095.7,286047000.8,N
1702693115.5,286046998.2,N
1702693135.4,286047000.0,N
1702693155.2,286047002.4,N
1702693175.1,286047000.1,N
1702693176.0,286047000.1,N
1702693195.8,286046999.7,N
1702693215.6,286047004.4,Y
1702693235.5,286047003.5,P
1702693255.3,286047002.2,N
1702693275.1,286047002.5,N
1702693295.9,286047002.5,N
1702693315.7,286047002.6,N
1702693335.6,286047004.4,Y
1702693355.4,286047000.5,P
1702693375.2,286047002.8,P
1702693395.1,286047001.2,N
1702693396.0,286047001.2,N
1702693415.8,286047000.6,N
1702693435.7,286046999.0,N
1702693455.5,286046996.6,Y
1702693475.3,286046997.8,P
1702693495.2,286046996.5,N
1702693515.0,286046998.4,N
1702693515.9,286046998.4,N
1702693535.7,286046998.3,N
1702693555.6,286046998.8,N
1702693575.4,286046999.3,N
1702693595.3,286046998.1,N
1702693615.1,286046998.3,N
1702693616.0,286046998.3,N
1702693635.8,286047000.0,N
1702693655.7,286046998.1,N
1702693675.5,286046998.3,N
1702693695.3,286047000.6,N
1702693715.2,286047000.7,N
1702693735.0,286046998.3,N
1702693735.9,286046998.3,N
1702693755.8,286046997.0,N
1702693775.6,286046996.7,N
1702693795.4,286046997.0,N
1702693815.3,286046996.9,N
1702693835.1,286046999.6,N
1702693855.8,286047000.9,N
1702693875.7,286047001.2,N
1702693895.5,286046998.7,N
1702693915.4,286046998.8,N
1702693935.2,286046998.3,N
1702693955.0,286046999.0,N
1702693955.9,286046999.0,N
1702693975.8,286046996.7,N
1702693995.6,286046997.8,N
1702694015.4,286046998.2,N
1702694035.3,286046999.4,N
1702694055.1,286046999.0,N
1702694075.9,286046998.3,N
1702694095.7,286047000.9,N
1702694115.5,286047001.2,N
1702694135.4,286046996.5,N
1702694155.2,286046998.3,N
1702694175.0,286046998.2,N
1702694175.9,286046998.2,N
1702694195.8,286046998.5,N
1702694245.6,286047000.8,E
1702694255.6,286047001.2,N
1702694275.4,286047000.7,P
1702694295.2,286047000.6,N
1702694315.1,286047001.1,Y
1702694316.0,286047001.1,P
1702694335.8,286046998.2,P
1702694355.7,286046996.5,N
1702694375.5,286046997.3,N
1702694395.3,286046996.5,N
1702694415.2,286046999.1,N
1702694435.0,286046998.7,N
1702694435.9,286046998.7,N
1702694455.8,286046997.5,N
1702694475.6,286046997.0,N
1702694495.4,286046996.5,N
1702694515.3,286046999.1,N
1702694535.1,286046996.9,N
1702694555.8,286046999.0,N
1702694575.7,286046998.8,N
1702694595.5,286047000.2,N
1702694615.4,286046998.4,N
1702694635.2,286046998.6,N
1702694655.0,286046998.5,N
1702694655.9,286046998.5,N
1702694675.8,286046999.0,N
1702694695.6,286046997.9,N
1702694715.4,286046997.7,N
1702694735.3,286046999.3,N
1702694755.1,286046999.3,N
1702694775.9,286047000.7,N
1702694795.7,286046999.5,N
1702694815.5,286047001.0,N
1702694835.4,286046999.4,N
1702694855.2,286046996.6,N
1702694875.0,286046997.0,N
1702694875.9,286046997.0,N
1702694895.8,286046998.2,N
1702694915.6,286046998.1,N
1702694935.5,286047000.8,N
1702694955.3,286046998.2,N
1702694975.1,286046998.4,N
1702694995.9,286047000.6,N
1702695015.7,286046998.8,N
1702695035.5,286046996.9,N
1702695055.4,286046999.6,N
1702695075.2,286046999.4,N
1702695095.1,286046999.6,N
1702695096.0,286046999.6,N
1702695115.8,286046998.5,N
1702695135.6,286046999.4,N
1702695155.5,286046999.3,N
1702695175.3,286046998.8,N
1702695195.1,286047000.9,N
1702695215.9,286047000.5,N
1702695235.7,286047000.0,N
1702695255.6,286046998.9,N
1702695275.4,286046998.1,N
1702695295.2,286047002.3,N
1702695315.1,286046998.1,N
1702695316.0,286046998.1,N
1702695335.8,286047002.4,N
1702695355.6,286046998.3,N
1702695375.5,286047000.9,N
1702695395.3,286046999.9,N
1702695415.2,286047000.9,N
1702695435.9,286047001.1,N
1702695455.7,286047000.3,N
1702695475.6,286047000.0,N
1702695495.4,286047001.0,N
1702695515.2,286047000.3,N
1702695535.1,286046998.7,N
1702695536.0,286046998.7,N
1702695555.8,286046998.7,N
1702695575.7,286046999.0,N
1702695595.5,286046998.8,N
